Year,Month,Day,Hour,Minute,Value (Times are PST for windspeed in km/hr)
2010,04,03,00,00,21.70
2010,04,03,00,01,31.70
2010,04,03,00,02,29.40
2010,04,03,00,03,27.40
2010,04,03,00,04,27.30
2010,04,03,00,05,14.90
2010,04,03,00,06,22.60
2010,04,03,00,07,27.40
2010,04,03,00,08,12.80
2010,04,03,00,09,19.20
2010,04,03,00,10,23.50
2010,04,03,00,11,29.60
2010,04,03,00,12,29.50
2010,04,03,00,13,26.20
2010,04,03,00,14,29.70
2010,04,03,00,15,35.00
2010,04,03,00,16,39.50
2010,04,03,00,17,29.90
2010,04,03,00,18,25.80
2010,04,03,00,19,23.20
2010,04,03,00,20,26.60
2010,04,03,00,21,37.40
2010,04,03,00,22,26.20
2010,04,03,00,23,22.30
2010,04,03,00,24,27.70
2010,04,03,00,25,23.10
2010,04,03,00,26,28.80
2010,04,03,00,27,28.70
2010,04,03,00,28,30.40
2010,04,03,00,29,26.40
2010,04,03,00,30,28.00
2010,04,03,00,31,25.80
2010,04,03,00,32,20.60
2010,04,03,00,33,20.30
2010,04,03,00,34,25.30
2010,04,03,00,35,15.10
2010,04,03,00,36,19.10
2010,04,03,00,37,31.20
2010,04,03,00,38,22.90
2010,04,03,00,39,26.30
2010,04,03,00,40,31.90
2010,04,03,00,41,24.70
2010,04,03,00,42,24.10
2010,04,03,00,43,19.70
2010,04,03,00,44,21.10
2010,04,03,00,45,23.50
2010,04,03,00,46,22.20
2010,04,03,00,47,28.90
2010,04,03,00,48,19.90
2010,04,03,00,49,19.10
2010,04,03,00,50,27.80
2010,04,03,00,51,20.60
2010,04,03,00,52,22.70
2010,04,03,00,53,24.20
2010,04,03,00,54,21.10
2010,04,03,00,55,27.80
2010,04,03,00,56,13.10
2010,04,03,00,57,23.60
2010,04,03,00,58,26.50
2010,04,03,00,59,23.00
2010,04,03,01,00,20.70
2010,04,03,01,01,24.50
2010,04,03,01,02,18.80
2010,04,03,01,03,19.20
2010,04,03,01,04,28.30
2010,04,03,01,05,18.10
2010,04,03,01,06,22.50
2010,04,03,01,07,17.10
2010,04,03,01,08,17.80
2010,04,03,01,09,19.90
2010,04,03,01,10,19.40
2010,04,03,01,11,21.60
2010,04,03,01,12,22.70
2010,04,03,01,13,24.90
2010,04,03,01,14,34.80
2010,04,03,01,15,25.90
2010,04,03,01,16,23.40
2010,04,03,01,17,17.30
2010,04,03,01,18,18.50
2010,04,03,01,19,22.40
2010,04,03,01,20,19.50
2010,04,03,01,21,14.30
2010,04,03,01,22,22.50
2010,04,03,01,23,20.60
2010,04,03,01,24,15.40
2010,04,03,01,25,17.50
2010,04,03,01,26,20.30
2010,04,03,01,27,23.20
2010,04,03,01,28,20.40
2010,04,03,01,29,19.10
2010,04,03,01,30,27.10
2010,04,03,01,31,32.80
2010,04,03,01,32,20.70
2010,04,03,01,33,20.30
2010,04,03,01,34,18.90
2010,04,03,01,35,20.00
2010,04,03,01,36,20.70
2010,04,03,01,37,16.10
2010,04,03,01,38,36.10
2010,04,03,01,39,25.30
2010,04,03,01,40,23.30
2010,04,03,01,41,19.50
2010,04,03,01,42,20.90
2010,04,03,01,43,18.30
2010,04,03,01,44,13.20
2010,04,03,01,45,14.70
2010,04,03,01,46,13.70
2010,04,03,01,47,23.30
2010,04,03,01,48,21.20
2010,04,03,01,49,30.50
2010,04,03,01,50,17.20
2010,04,03,01,51,26.50
2010,04,03,01,52,29.30
2010,04,03,01,53,29.10
2010,04,03,01,54,15.20
2010,04,03,01,55,24.20
2010,04,03,01,56,21.60
2010,04,03,01,57,24.60
2010,04,03,01,58,21.80
2010,04,03,01,59,22.30
2010,04,03,02,00,19.60
2010,04,03,02,01,25.40
2010,04,03,02,02,15.10
2010,04,03,02,03,28.20
2010,04,03,02,04,22.80
2010,04,03,02,05,18.20
2010,04,03,02,06,21.20
2010,04,03,02,07,19.90
2010,04,03,02,08,18.30
2010,04,03,02,09,22.80
2010,04,03,02,10,30.70
2010,04,03,02,11,22.60
2010,04,03,02,12,21.20
2010,04,03,02,13,18.70
2010,04,03,02,14,29.20
2010,04,03,02,15,29.50
2010,04,03,02,16,31.20
2010,04,03,02,17,20.70
2010,04,03,02,18,24.80
2010,04,03,02,19,25.40
2010,04,03,02,20,29.50
2010,04,03,02,21,28.90
2010,04,03,02,22,30.50
2010,04,03,02,23,18.70
2010,04,03,02,24,24.10
2010,04,03,02,25,23.20
2010,04,03,02,26,17.30
2010,04,03,02,27,23.20
2010,04,03,02,28,19.50
2010,04,03,02,29,23.70
2010,04,03,02,30,22.80
2010,04,03,02,31,25.20
2010,04,03,02,32,21.40
2010,04,03,02,33,22.80
2010,04,03,02,34,21.40
2010,04,03,02,35,21.00
2010,04,03,02,36,26.70
2010,04,03,02,37,18.50
2010,04,03,02,38,18.70
2010,04,03,02,39,29.60
2010,04,03,02,40,27.40
2010,04,03,02,41,21.70
2010,04,03,02,42,25.20
2010,04,03,02,43,22.60
2010,04,03,02,44,25.90
2010,04,03,02,45,24.70
2010,04,03,02,46,22.80
2010,04,03,02,47,23.50
2010,04,03,02,48,26.00
2010,04,03,02,49,15.50
2010,04,03,02,50,26.40
2010,04,03,02,51,35.30
2010,04,03,02,52,27.90
2010,04,03,02,53,23.70
2010,04,03,02,54,16.10
2010,04,03,02,55,22.00
2010,04,03,02,56,21.10
2010,04,03,02,57,21.90
2010,04,03,02,58,24.40
2010,04,03,02,59,15.80
2010,04,03,03,00,18.50
2010,04,03,03,01,19.60
2010,04,03,03,02,25.80
2010,04,03,03,03,19.10
2010,04,03,03,04,17.10
2010,04,03,03,05,25.90
2010,04,03,03,06,21.70
2010,04,03,03,07,20.00
2010,04,03,03,08,24.90
2010,04,03,03,09,15.90
2010,04,03,03,10,20.40
2010,04,03,03,11,18.70
2010,04,03,03,12,22.30
2010,04,03,03,13,15.90
2010,04,03,03,14,15.80
2010,04,03,03,15,15.10
2010,04,03,03,16,11.50
2010,04,03,03,17,8.70
2010,04,03,03,18,14.10
2010,04,03,03,19,9.30
2010,04,03,03,20,11.80
2010,04,03,03,21,11.30
2010,04,03,03,22,8.60
2010,04,03,03,23,5.80
2010,04,03,03,24,12.60
2010,04,03,03,25,19.00
2010,04,03,03,26,15.50
2010,04,03,03,27,16.80
2010,04,03,03,28,28.10
2010,04,03,03,29,19.90
2010,04,03,03,30,14.90
2010,04,03,03,31,32.80
2010,04,03,03,32,25.00
2010,04,03,03,33,23.40
2010,04,03,03,34,28.10
2010,04,03,03,35,23.80
2010,04,03,03,36,18.50
2010,04,03,03,37,22.90
2010,04,03,03,38,22.30
2010,04,03,03,39,20.30
2010,04,03,03,40,21.30
2010,04,03,03,41,17.70
2010,04,03,03,42,14.20
2010,04,03,03,43,25.50
2010,04,03,03,44,24.20
2010,04,03,03,45,22.20
2010,04,03,03,46,21.10
2010,04,03,03,47,27.10
2010,04,03,03,48,25.90
2010,04,03,03,49,27.90
2010,04,03,03,50,28.30
2010,04,03,03,51,25.40
2010,04,03,03,52,23.10
2010,04,03,03,53,21.30
2010,04,03,03,54,24.70
2010,04,03,03,55,22.90
2010,04,03,03,56,26.70
2010,04,03,03,57,24.00
2010,04,03,03,58,24.00
2010,04,03,03,59,18.80
2010,04,03,04,00,18.90
2010,04,03,04,01,14.20
2010,04,03,04,02,19.50
2010,04,03,04,03,18.50
2010,04,03,04,04,18.40
2010,04,03,04,05,13.20
2010,04,03,04,06,15.50
2010,04,03,04,07,14.60
2010,04,03,04,08,13.70
2010,04,03,04,09,16.30
2010,04,03,04,10,17.70
2010,04,03,04,11,19.00
2010,04,03,04,12,18.10
2010,04,03,04,13,14.80
2010,04,03,04,14,19.90
2010,04,03,04,15,16.20
2010,04,03,04,16,15.10
2010,04,03,04,17,15.50
2010,04,03,04,18,15.60
2010,04,03,04,19,14.20
2010,04,03,04,20,14.80
2010,04,03,04,21,12.30
2010,04,03,04,22,21.00
2010,04,03,04,23,29.50
2010,04,03,04,24,17.30
2010,04,03,04,25,19.40
2010,04,03,04,26,26.40
2010,04,03,04,27,21.60
2010,04,03,04,28,29.30
2010,04,03,04,29,22.50
2010,04,03,04,30,24.10
2010,04,03,04,31,29.90
2010,04,03,04,32,29.10
2010,04,03,04,33,27.20
2010,04,03,04,34,29.30
2010,04,03,04,35,27.70
2010,04,03,04,36,27.90
2010,04,03,04,37,24.20
2010,04,03,04,38,19.10
2010,04,03,04,39,19.10
2010,04,03,04,40,16.40
2010,04,03,04,41,16.00
2010,04,03,04,42,20.10
2010,04,03,04,43,20.40
2010,04,03,04,44,20.60
2010,04,03,04,45,28.70
2010,04,03,04,46,19.30
2010,04,03,04,47,13.90
2010,04,03,04,48,12.50
2010,04,03,04,49,15.10
2010,04,03,04,50,13.10
2010,04,03,04,51,14.80
2010,04,03,04,52,15.90
2010,04,03,04,53,20.20
2010,04,03,04,54,16.50
2010,04,03,04,55,15.20
2010,04,03,04,56,18.30
2010,04,03,04,57,21.00
2010,04,03,04,58,22.00
2010,04,03,04,59,23.10
2010,04,03,05,00,27.70
2010,04,03,05,01,18.80
2010,04,03,05,02,21.00
2010,04,03,05,03,18.90
2010,04,03,05,04,21.30
2010,04,03,05,05,22.00
2010,04,03,05,06,19.30
2010,04,03,05,07,26.20
2010,04,03,05,08,23.20
2010,04,03,05,09,19.20
2010,04,03,05,10,21.50
2010,04,03,05,11,23.10
2010,04,03,05,12,21.50
2010,04,03,05,13,25.60
2010,04,03,05,14,20.10
2010,04,03,05,15,19.20
2010,04,03,05,16,21.50
2010,04,03,05,17,20.60
2010,04,03,05,18,14.80
2010,04,03,05,19,13.00
2010,04,03,05,20,23.50
2010,04,03,05,21,19.20
2010,04,03,05,22,19.50
2010,04,03,05,23,25.20
2010,04,03,05,24,23.90
2010,04,03,05,25,21.30
2010,04,03,05,26,28.00
2010,04,03,05,27,22.50
2010,04,03,05,28,17.60
2010,04,03,05,29,18.50
2010,04,03,05,30,23.90
2010,04,03,05,31,20.20
2010,04,03,05,32,15.50
2010,04,03,05,33,22.40
2010,04,03,05,34,18.80
2010,04,03,05,35,21.40
2010,04,03,05,36,22.40
2010,04,03,05,37,15.60
2010,04,03,05,38,11.60
2010,04,03,05,39,15.50
2010,04,03,05,40,14.40
2010,04,03,05,41,10.70
2010,04,03,05,42,8.10
2010,04,03,05,43,10.00
2010,04,03,05,44,12.90
2010,04,03,05,45,14.20
2010,04,03,05,46,16.80
2010,04,03,05,47,14.70
2010,04,03,05,48,14.80
2010,04,03,05,49,21.10
2010,04,03,05,50,22.00
2010,04,03,05,51,12.90
2010,04,03,05,52,19.00
2010,04,03,05,53,18.70
2010,04,03,05,54,18.50
2010,04,03,05,55,22.30
2010,04,03,05,56,17.80
2010,04,03,05,57,18.60
2010,04,03,05,58,13.30
2010,04,03,05,59,19.50
2010,04,03,06,00,18.50
2010,04,03,06,01,18.30
2010,04,03,06,02,17.60
2010,04,03,06,03,18.30
2010,04,03,06,04,14.90
2010,04,03,06,05,17.30
2010,04,03,06,06,22.60
2010,04,03,06,07,23.20
2010,04,03,06,08,18.40
2010,04,03,06,09,26.10
2010,04,03,06,10,18.30
2010,04,03,06,11,21.30
2010,04,03,06,12,20.90
2010,04,03,06,13,20.70
2010,04,03,06,14,15.40
2010,04,03,06,15,21.70
2010,04,03,06,16,25.80
2010,04,03,06,17,29.10
2010,04,03,06,18,23.80
2010,04,03,06,19,15.20
2010,04,03,06,20,17.50
2010,04,03,06,21,19.90
2010,04,03,06,22,20.50
2010,04,03,06,23,16.80
2010,04,03,06,24,19.30
2010,04,03,06,25,21.50
2010,04,03,06,26,19.50
2010,04,03,06,27,21.40
2010,04,03,06,28,23.30
2010,04,03,06,29,20.30
2010,04,03,06,30,16.70
2010,04,03,06,31,10.70
2010,04,03,06,32,10.60
2010,04,03,06,33,17.80
2010,04,03,06,34,22.00
2010,04,03,06,35,21.60
2010,04,03,06,36,12.80
2010,04,03,06,37,15.80
2010,04,03,06,38,14.70
2010,04,03,06,39,19.00
2010,04,03,06,40,21.10
2010,04,03,06,41,27.00
2010,04,03,06,42,27.90
2010,04,03,06,43,17.00
2010,04,03,06,44,14.70
2010,04,03,06,45,14.10
2010,04,03,06,46,17.00
2010,04,03,06,47,13.40
2010,04,03,06,48,15.30
2010,04,03,06,49,14.30
2010,04,03,06,50,21.80
2010,04,03,06,51,9.80
2010,04,03,06,52,24.50
2010,04,03,06,53,16.30
2010,04,03,06,54,21.60
2010,04,03,06,55,15.00
2010,04,03,06,56,15.90
2010,04,03,06,57,15.30
2010,04,03,06,58,23.90
2010,04,03,06,59,19.90
2010,04,03,07,00,21.70
2010,04,03,07,01,29.00
2010,04,03,07,02,21.90
2010,04,03,07,03,22.40
2010,04,03,07,04,16.30
2010,04,03,07,05,18.40
2010,04,03,07,06,16.40
2010,04,03,07,07,17.10
2010,04,03,07,08,15.30
2010,04,03,07,09,12.30
2010,04,03,07,10,16.50
2010,04,03,07,11,20.20
2010,04,03,07,12,18.70
2010,04,03,07,13,22.20
2010,04,03,07,14,21.90
2010,04,03,07,15,25.10
2010,04,03,07,16,18.40
2010,04,03,07,17,16.90
2010,04,03,07,18,12.30
2010,04,03,07,19,13.00
2010,04,03,07,20,17.60
2010,04,03,07,21,19.40
2010,04,03,07,22,23.90
2010,04,03,07,23,21.50
2010,04,03,07,24,23.10
2010,04,03,07,25,24.40
2010,04,03,07,26,18.60
2010,04,03,07,27,15.40
2010,04,03,07,28,19.70
2010,04,03,07,29,20.80
2010,04,03,07,30,22.50
2010,04,03,07,31,12.70
2010,04,03,07,32,15.50
2010,04,03,07,33,19.30
2010,04,03,07,34,14.10
2010,04,03,07,35,19.40
2010,04,03,07,36,21.10
2010,04,03,07,37,28.20
2010,04,03,07,38,19.70
2010,04,03,07,39,12.90
2010,04,03,07,40,15.10
2010,04,03,07,41,17.10
2010,04,03,07,42,15.50
2010,04,03,07,43,16.90
2010,04,03,07,44,18.60
2010,04,03,07,45,16.40
2010,04,03,07,46,14.20
2010,04,03,07,47,10.50
2010,04,03,07,48,10.00
2010,04,03,07,49,10.20
2010,04,03,07,50,22.90
2010,04,03,07,51,19.50
2010,04,03,07,52,11.60
2010,04,03,07,53,19.30
2010,04,03,07,54,13.40
2010,04,03,07,55,26.00
2010,04,03,07,56,22.40
2010,04,03,07,57,26.30
2010,04,03,07,58,32.20
2010,04,03,07,59,30.10
2010,04,03,08,00,20.80
2010,04,03,08,01,18.60
2010,04,03,08,02,24.90
2010,04,03,08,03,22.90
2010,04,03,08,04,21.90
2010,04,03,08,05,24.60
2010,04,03,08,06,32.50
2010,04,03,08,07,21.10
2010,04,03,08,08,20.40
2010,04,03,08,09,20.10
2010,04,03,08,10,15.50
2010,04,03,08,11,10.80
2010,04,03,08,12,8.90
2010,04,03,08,13,9.00
2010,04,03,08,14,11.40
2010,04,03,08,15,14.70
2010,04,03,08,16,19.10
2010,04,03,08,17,13.50
2010,04,03,08,18,11.40
2010,04,03,08,19,17.30
2010,04,03,08,20,13.90
2010,04,03,08,21,18.90
2010,04,03,08,22,12.40
2010,04,03,08,23,12.80
2010,04,03,08,24,12.20
2010,04,03,08,25,16.30
2010,04,03,08,26,14.40
2010,04,03,08,27,12.00
2010,04,03,08,28,15.70
2010,04,03,08,29,12.00
2010,04,03,08,30,12.80
2010,04,03,08,31,16.40
2010,04,03,08,32,18.10
2010,04,03,08,33,10.00
2010,04,03,08,34,9.30
2010,04,03,08,35,10.10
2010,04,03,08,36,18.10
2010,04,03,08,37,9.00
2010,04,03,08,38,7.80
2010,04,03,08,39,9.80
2010,04,03,08,40,17.70
2010,04,03,08,41,15.60
2010,04,03,08,42,20.20
2010,04,03,08,43,8.50
2010,04,03,08,44,13.80
2010,04,03,08,45,21.30
2010,04,03,08,46,19.90
2010,04,03,08,47,17.50
2010,04,03,08,48,15.80
2010,04,03,08,49,15.80
2010,04,03,08,50,15.00
2010,04,03,08,51,10.20
2010,04,03,08,52,11.30
2010,04,03,08,53,24.90
2010,04,03,08,54,13.70
2010,04,03,08,55,5.70
2010,04,03,08,56,10.40
2010,04,03,08,57,9.20
2010,04,03,08,58,23.20
2010,04,03,08,59,15.50
2010,04,03,09,00,17.50
2010,04,03,09,01,11.00
2010,04,03,09,02,7.50
2010,04,03,09,03,5.90
2010,04,03,09,04,6.40
2010,04,03,09,05,8.10
2010,04,03,09,06,9.40
2010,04,03,09,07,10.30
2010,04,03,09,08,10.10
2010,04,03,09,09,12.80
2010,04,03,09,10,14.40
2010,04,03,09,11,8.10
2010,04,03,09,12,13.60
2010,04,03,09,13,10.60
2010,04,03,09,14,12.10
2010,04,03,09,15,13.90
2010,04,03,09,16,11.50
2010,04,03,09,17,10.90
2010,04,03,09,18,15.30
2010,04,03,09,19,13.10
2010,04,03,09,20,12.20
2010,04,03,09,21,9.40
2010,04,03,09,22,10.50
2010,04,03,09,23,11.70
2010,04,03,09,24,10.20
2010,04,03,09,25,18.80
2010,04,03,09,26,18.90
2010,04,03,09,27,15.80
2010,04,03,09,28,20.30
2010,04,03,09,29,22.20
2010,04,03,09,30,20.00
2010,04,03,09,31,18.70
2010,04,03,09,32,16.60
2010,04,03,09,33,19.80
2010,04,03,09,34,11.20
2010,04,03,09,35,19.70
2010,04,03,09,36,18.10
2010,04,03,09,37,13.70
2010,04,03,09,38,14.90
2010,04,03,09,39,15.70
2010,04,03,09,40,12.10
2010,04,03,09,41,11.60
2010,04,03,09,42,25.30
2010,04,03,09,43,18.30
2010,04,03,09,44,27.70
2010,04,03,09,45,17.00
2010,04,03,09,46,18.00
2010,04,03,09,47,16.10
2010,04,03,09,48,16.10
2010,04,03,09,49,15.90
2010,04,03,09,50,17.20
2010,04,03,09,51,17.20
2010,04,03,09,52,10.30
2010,04,03,09,53,11.40
2010,04,03,09,54,14.60
2010,04,03,09,55,13.10
2010,04,03,09,56,10.50
2010,04,03,09,57,9.10
2010,04,03,09,58,11.90
2010,04,03,09,59,8.70
2010,04,03,10,00,12.90
2010,04,03,10,01,14.70
2010,04,03,10,02,9.10
2010,04,03,10,03,13.50
2010,04,03,10,04,15.60
2010,04,03,10,05,10.00
2010,04,03,10,06,13.60
2010,04,03,10,07,13.80
2010,04,03,10,08,14.20
2010,04,03,10,09,14.50
2010,04,03,10,10,12.10
2010,04,03,10,11,14.60
2010,04,03,10,12,9.00
2010,04,03,10,13,12.50
2010,04,03,10,14,13.90
2010,04,03,10,15,15.40
2010,04,03,10,16,14.80
2010,04,03,10,17,18.00
2010,04,03,10,18,12.30
2010,04,03,10,19,8.00
2010,04,03,10,20,16.20
2010,04,03,10,21,15.40
2010,04,03,10,22,18.40
2010,04,03,10,23,13.20
2010,04,03,10,24,17.00
2010,04,03,10,25,14.00
2010,04,03,10,26,11.40
2010,04,03,10,27,8.70
2010,04,03,10,28,9.40
2010,04,03,10,29,13.80
2010,04,03,10,30,21.60
2010,04,03,10,31,15.40
2010,04,03,10,32,18.00
2010,04,03,10,33,12.60
2010,04,03,10,34,16.00
2010,04,03,10,35,15.80
2010,04,03,10,36,10.70
2010,04,03,10,37,10.10
2010,04,03,10,38,14.70
2010,04,03,10,39,13.40
2010,04,03,10,40,3.30
2010,04,03,10,41,8.10
2010,04,03,10,42,9.60
2010,04,03,10,43,9.80
2010,04,03,10,44,8.30
2010,04,03,10,45,9.40
2010,04,03,10,46,2.80
2010,04,03,10,47,4.30
2010,04,03,10,48,2.60
2010,04,03,10,49,1.30
2010,04,03,10,50,5.20
2010,04,03,10,51,5.90
2010,04,03,10,52,6.30
2010,04,03,10,53,6.20
2010,04,03,10,54,7.60
2010,04,03,10,55,3.50
2010,04,03,10,56,3.80
2010,04,03,10,57,0.30
2010,04,03,10,58,4.20
2010,04,03,10,59,4.50
2010,04,03,11,00,2.50
2010,04,03,11,01,3.90
2010,04,03,11,02,2.60
2010,04,03,11,03,2.80
2010,04,03,11,04,5.50
2010,04,03,11,05,4.10
2010,04,03,11,06,5.50
2010,04,03,11,07,2.90
2010,04,03,11,08,0.70
2010,04,03,11,09,0.30
2010,04,03,11,10,3.80
2010,04,03,11,11,2.60
2010,04,03,11,12,1.40
2010,04,03,11,13,1.10
2010,04,03,11,14,0.60
2010,04,03,11,15,0.40
2010,04,03,11,16,0.10
2010,04,03,11,17,0.00
2010,04,03,11,18,0.00
2010,04,03,11,19,0.30
2010,04,03,11,20,0.70
2010,04,03,11,21,0.00
2010,04,03,11,22,0.00
2010,04,03,11,23,0.40
2010,04,03,11,24,1.30
2010,04,03,11,25,0.10
2010,04,03,11,26,0.30
2010,04,03,11,27,2.60
2010,04,03,11,28,0.40
2010,04,03,11,29,3.30
2010,04,03,11,30,3.20
2010,04,03,11,31,0.80
2010,04,03,11,32,2.30
2010,04,03,11,33,0.80
2010,04,03,11,34,3.10
2010,04,03,11,35,7.60
2010,04,03,11,36,6.80
2010,04,03,11,37,8.70
2010,04,03,11,38,10.10
2010,04,03,11,39,12.00
2010,04,03,11,40,10.10
2010,04,03,11,41,11.10
2010,04,03,11,42,11.90
2010,04,03,11,43,7.80
2010,04,03,11,44,5.60
2010,04,03,11,45,1.90
2010,04,03,11,46,1.60
2010,04,03,11,47,5.00
2010,04,03,11,48,5.90
2010,04,03,11,49,6.60
2010,04,03,11,50,7.70
2010,04,03,11,51,6.10
2010,04,03,11,52,8.70
2010,04,03,11,53,8.10
2010,04,03,11,54,8.20
2010,04,03,11,55,8.70
2010,04,03,11,56,7.10
2010,04,03,11,57,2.10
2010,04,03,11,58,0.30
2010,04,03,11,59,0.40
2010,04,03,12,00,3.40
2010,04,03,12,01,2.90
2010,04,03,12,02,2.70
2010,04,03,12,03,7.20
2010,04,03,12,04,5.30
2010,04,03,12,05,7.70
2010,04,03,12,06,3.30
2010,04,03,12,07,4.00
2010,04,03,12,08,3.60
2010,04,03,12,09,3.60
2010,04,03,12,10,4.30
2010,04,03,12,11,3.60
2010,04,03,12,12,4.00
2010,04,03,12,13,4.70
2010,04,03,12,14,4.10
2010,04,03,12,15,3.60
2010,04,03,12,16,2.00
2010,04,03,12,17,0.60
2010,04,03,12,18,0.80
2010,04,03,12,19,3.30
2010,04,03,12,20,1.20
2010,04,03,12,21,0.10
2010,04,03,12,22,0.30
2010,04,03,12,23,1.40
2010,04,03,12,24,4.90
2010,04,03,12,25,3.00
2010,04,03,12,26,4.20
2010,04,03,12,27,5.00
2010,04,03,12,28,5.20
2010,04,03,12,29,3.90
2010,04,03,12,30,4.40
2010,04,03,12,31,7.60
2010,04,03,12,32,11.50
2010,04,03,12,33,8.00
2010,04,03,12,34,8.50
2010,04,03,12,35,9.70
2010,04,03,12,36,9.70
2010,04,03,12,37,12.00
2010,04,03,12,38,7.30
2010,04,03,12,39,8.20
2010,04,03,12,40,5.10
2010,04,03,12,41,6.10
2010,04,03,12,42,9.60
2010,04,03,12,43,14.10
2010,04,03,12,44,14.70
2010,04,03,12,45,16.40
2010,04,03,12,46,13.60
2010,04,03,12,47,8.80
2010,04,03,12,48,10.20
2010,04,03,12,49,15.00
2010,04,03,12,50,15.40
2010,04,03,12,51,6.90
2010,04,03,12,52,8.10
2010,04,03,12,53,5.10
2010,04,03,12,54,7.10
2010,04,03,12,55,8.30
2010,04,03,12,56,8.40
2010,04,03,12,57,9.20
2010,04,03,12,58,4.60
2010,04,03,12,59,3.60
2010,04,03,13,00,8.00
2010,04,03,13,01,7.30
2010,04,03,13,02,9.80
2010,04,03,13,03,10.20
2010,04,03,13,04,7.60
2010,04,03,13,05,9.40
2010,04,03,13,06,6.30
2010,04,03,13,07,7.10
2010,04,03,13,08,10.30
2010,04,03,13,09,10.00
2010,04,03,13,10,7.60
2010,04,03,13,11,5.10
2010,04,03,13,12,3.30
2010,04,03,13,13,3.50
2010,04,03,13,14,3.50
2010,04,03,13,15,6.80
2010,04,03,13,16,7.60
2010,04,03,13,17,6.10
2010,04,03,13,18,7.60
2010,04,03,13,19,5.80
2010,04,03,13,20,12.80
2010,04,03,13,21,6.70
2010,04,03,13,22,7.60
2010,04,03,13,23,7.20
2010,04,03,13,24,11.30
2010,04,03,13,25,7.30
2010,04,03,13,26,5.90
2010,04,03,13,27,7.90
2010,04,03,13,28,9.40
2010,04,03,13,29,11.10
2010,04,03,13,30,14.00
2010,04,03,13,31,19.70
2010,04,03,13,32,11.90
2010,04,03,13,33,8.60
2010,04,03,13,34,16.30
2010,04,03,13,35,15.00
2010,04,03,13,36,14.10
2010,04,03,13,37,14.90
2010,04,03,13,38,17.50
2010,04,03,13,39,13.40
2010,04,03,13,40,11.50
2010,04,03,13,41,12.00
2010,04,03,13,42,9.60
2010,04,03,13,43,10.70
2010,04,03,13,44,10.90
2010,04,03,13,45,15.30
2010,04,03,13,46,9.80
2010,04,03,13,47,9.40
2010,04,03,13,48,12.70
2010,04,03,13,49,13.70
2010,04,03,13,50,12.30
2010,04,03,13,51,10.00
2010,04,03,13,52,10.60
2010,04,03,13,53,10.70
2010,04,03,13,54,12.00
2010,04,03,13,55,16.80
2010,04,03,13,56,12.10
2010,04,03,13,57,13.60
2010,04,03,13,58,10.80
2010,04,03,13,59,13.00
2010,04,03,14,00,12.60
2010,04,03,14,01,13.30
2010,04,03,14,02,9.10
2010,04,03,14,03,13.80
2010,04,03,14,04,10.90
2010,04,03,14,05,12.50
2010,04,03,14,06,13.80
2010,04,03,14,07,11.90
2010,04,03,14,08,8.10
2010,04,03,14,09,8.00
2010,04,03,14,10,10.20
2010,04,03,14,11,10.80
2010,04,03,14,12,6.70
2010,04,03,14,13,7.50
2010,04,03,14,14,9.40
2010,04,03,14,15,9.60
2010,04,03,14,16,11.40
2010,04,03,14,17,7.70
2010,04,03,14,18,6.70
2010,04,03,14,19,8.10
2010,04,03,14,20,9.10
2010,04,03,14,21,8.40
2010,04,03,14,22,8.40
2010,04,03,14,23,6.70
2010,04,03,14,24,4.60
2010,04,03,14,25,3.30
2010,04,03,14,26,12.40
2010,04,03,14,27,11.90
2010,04,03,14,28,10.60
2010,04,03,14,29,8.20
2010,04,03,14,30,12.60
2010,04,03,14,31,14.20
2010,04,03,14,32,12.90
2010,04,03,14,33,10.40
2010,04,03,14,34,10.90
2010,04,03,14,35,12.40
2010,04,03,14,36,16.30
2010,04,03,14,37,13.30
2010,04,03,14,38,16.50
2010,04,03,14,39,12.90
2010,04,03,14,40,17.70
2010,04,03,14,41,14.40
2010,04,03,14,42,13.50
2010,04,03,14,43,11.20
2010,04,03,14,44,8.50
2010,04,03,14,45,11.50
2010,04,03,14,46,15.80
2010,04,03,14,47,16.80
2010,04,03,14,48,10.10
2010,04,03,14,49,12.50
2010,04,03,14,50,6.30
2010,04,03,14,51,13.70
2010,04,03,14,52,10.20
2010,04,03,14,53,14.10
2010,04,03,14,54,17.50
2010,04,03,14,55,10.60
2010,04,03,14,56,15.10
2010,04,03,14,57,12.20
2010,04,03,14,58,14.30
2010,04,03,14,59,10.80
2010,04,03,15,00,14.80
2010,04,03,15,01,18.20
2010,04,03,15,02,15.50
2010,04,03,15,03,15.90
2010,04,03,15,04,11.80
2010,04,03,15,05,14.20
2010,04,03,15,06,11.10
2010,04,03,15,07,14.80
2010,04,03,15,08,15.50
2010,04,03,15,09,11.40
2010,04,03,15,10,16.90
2010,04,03,15,11,18.20
2010,04,03,15,12,17.30
2010,04,03,15,13,19.00
2010,04,03,15,14,16.90
2010,04,03,15,15,14.60
2010,04,03,15,16,13.40
2010,04,03,15,17,14.00
2010,04,03,15,18,15.40
2010,04,03,15,19,12.10
2010,04,03,15,20,12.50
2010,04,03,15,21,8.20
2010,04,03,15,22,12.10
2010,04,03,15,23,17.70
2010,04,03,15,24,16.30
2010,04,03,15,25,10.70
2010,04,03,15,26,11.70
2010,04,03,15,27,13.00
2010,04,03,15,28,11.80
2010,04,03,15,29,16.60
2010,04,03,15,30,16.30
2010,04,03,15,31,12.40
2010,04,03,15,32,10.90
2010,04,03,15,33,13.70
2010,04,03,15,34,10.90
2010,04,03,15,35,6.00
2010,04,03,15,36,8.00
2010,04,03,15,37,7.50
2010,04,03,15,38,10.10
2010,04,03,15,39,11.20
2010,04,03,15,40,8.60
2010,04,03,15,41,4.70
2010,04,03,15,42,5.20
2010,04,03,15,43,11.40
2010,04,03,15,44,11.50
2010,04,03,15,45,6.00
2010,04,03,15,46,9.00
2010,04,03,15,47,13.40
2010,04,03,15,48,13.00
2010,04,03,15,49,13.80
2010,04,03,15,50,7.50
2010,04,03,15,51,9.40
2010,04,03,15,52,6.40
2010,04,03,15,53,11.80
2010,04,03,15,54,10.20
2010,04,03,15,55,7.90
2010,04,03,15,56,12.30
2010,04,03,15,57,13.30
2010,04,03,15,58,10.80
2010,04,03,15,59,13.80
2010,04,03,16,00,10.70
2010,04,03,16,01,6.90
2010,04,03,16,02,4.70
2010,04,03,16,03,8.10
2010,04,03,16,04,8.20
2010,04,03,16,05,6.30
2010,04,03,16,06,9.10
2010,04,03,16,07,14.80
2010,04,03,16,08,9.40
2010,04,03,16,09,9.50
2010,04,03,16,10,7.60
2010,04,03,16,11,7.60
2010,04,03,16,12,6.00
2010,04,03,16,13,6.80
2010,04,03,16,14,8.90
2010,04,03,16,15,7.40
2010,04,03,16,16,7.60
2010,04,03,16,17,10.00
2010,04,03,16,18,8.40
2010,04,03,16,19,3.00
2010,04,03,16,20,9.30
2010,04,03,16,21,11.40
2010,04,03,16,22,9.10
2010,04,03,16,23,6.60
2010,04,03,16,24,12.60
2010,04,03,16,25,13.70
2010,04,03,16,26,12.60
2010,04,03,16,27,13.30
2010,04,03,16,28,9.20
2010,04,03,16,29,10.20
2010,04,03,16,30,6.70
2010,04,03,16,31,6.60
2010,04,03,16,32,8.80
2010,04,03,16,33,8.10
2010,04,03,16,34,8.00
2010,04,03,16,35,8.20
2010,04,03,16,36,8.50
2010,04,03,16,37,8.10
2010,04,03,16,38,8.60
2010,04,03,16,39,5.20
2010,04,03,16,40,8.30
2010,04,03,16,41,8.40
2010,04,03,16,42,6.90
2010,04,03,16,43,8.50
2010,04,03,16,44,8.40
2010,04,03,16,45,8.00
2010,04,03,16,46,9.30
2010,04,03,16,47,7.70
2010,04,03,16,48,8.70
2010,04,03,16,49,12.10
2010,04,03,16,50,6.20
2010,04,03,16,51,10.90
2010,04,03,16,52,7.30
2010,04,03,16,53,8.10
2010,04,03,16,54,8.70
2010,04,03,16,55,9.80
2010,04,03,16,56,8.60
2010,04,03,16,57,9.50
2010,04,03,16,58,8.10
2010,04,03,16,59,7.10
2010,04,03,17,00,5.00
2010,04,03,17,01,5.30
2010,04,03,17,02,7.20
2010,04,03,17,03,7.30
2010,04,03,17,04,7.50
2010,04,03,17,05,5.80
2010,04,03,17,06,5.80
2010,04,03,17,07,6.00
2010,04,03,17,08,8.20
2010,04,03,17,09,7.00
2010,04,03,17,10,6.40
2010,04,03,17,11,5.80
2010,04,03,17,12,6.90
2010,04,03,17,13,9.80
2010,04,03,17,14,11.10
2010,04,03,17,15,11.20
2010,04,03,17,16,10.10
2010,04,03,17,17,14.30
2010,04,03,17,18,11.50
2010,04,03,17,19,12.50
2010,04,03,17,20,9.70
2010,04,03,17,21,6.80
2010,04,03,17,22,6.30
2010,04,03,17,23,5.40
2010,04,03,17,24,5.30
2010,04,03,17,25,9.80
2010,04,03,17,26,12.50
2010,04,03,17,27,9.50
2010,04,03,17,28,8.20
2010,04,03,17,29,10.60
2010,04,03,17,30,9.40
2010,04,03,17,31,9.00